DateTime,Voltage,Setpoint_Voltage,VVC_ClosedLoop_Enabled,Real_Power
 03/09/2018 00:00:00,10.99,11.0,1,0.85
 03/09/2018 00:15:00,10.99,11.0,1,0.85
 03/09/2018 00:30:00,10.99,11.0,1,0.85
 03/09/2018 00:45:00,10.99,11.0,1,0.85
 03/09/2018 01:00:00,10.99,11.0,1,0.85
 03/09/2018 01:15:00,10.99,11.0,1,0.85
 03/09/2018 01:30:00,10.99,11.0,1,0.85
 03/09/2018 01:45:00,10.99,11.0,1,0.85
 03/09/2018 02:00:00,10.99,11.0,1,0.85
 03/09/2018 02:15:00,10.99,11.0,1,0.85
 03/09/2018 02:30:00,10.99,11.0,1,0.85
 03/09/2018 02:45:00,10.99,11.0,1,0.85
 03/09/2018 03:00:00,10.99,11.0,1,0.85
 03/09/2018 03:15:00,10.99,11.0,1,0.85
 03/09/2018 03:30:00,10.99,11.0,1,0.85
 03/09/2018 03:45:00,10.99,11.0,1,0.85
 03/09/2018 04:00:00,10.99,11.0,1,0.85
 03/09/2018 04:15:00,10.99,11.0,1,0.85
 03/09/2018 04:30:00,10.99,11.0,1,0.85
 03/09/2018 04:45:00,10.99,11.0,1,0.85
 03/09/2018 05:00:00,10.99,11.0,1,0.85
 03/09/2018 05:15:00,10.99,11.0,1,0.85
 03/09/2018 05:30:00,10.99,11.0,1,0.85
 03/09/2018 05:45:00,10.99,11.0,1,0.85
 03/09/2018 06:00:00,10.99,11.0,1,0.85
 03/09/2018 06:15:00,10.99,11.0,1,0.85
 03/09/2018 06:30:00,10.99,11.0,1,0.85
 03/09/2018 06:45:00,10.99,11.0,1,0.85
 03/09/2018 07:00:00,10.99,11.0,1,0.85
 03/09/2018 07:15:00,10.99,11.0,1,0.85
 03/09/2018 07:30:00,10.99,11.0,1,0.85
 03/09/2018 07:45:00,10.99,11.0,1,0.85
 03/09/2018 08:00:00,10.99,11.0,1,0.85
 03/09/2018 08:15:00,10.99,11.0,1,0.85
 03/09/2018 08:30:00,10.99,11.0,1,0.85
 03/09/2018 08:45:00,10.99,11.0,1,0.85
 03/09/2018 09:00:00,11.0,11.0,1,0.85
 03/09/2018 09:15:00,11.0,11.0,1,0.85
 03/09/2018 09:30:00,11.0,11.0,1,0.85
 03/09/2018 09:45:00,11.0,11.0,2,0.89
 03/09/2018 10:00:00,11.0,11.0,2,1.06
 03/09/2018 10:15:00,11.04,11.0,2,1.06
 03/09/2018 10:30:00,11.07,11.0,2,1.04
 03/09/2018 10:45:00,11.07,11.0,2,0.8
 03/09/2018 11:00:00,11.07,11.0,2,0.66
 03/09/2018 11:15:00,11.07,11.0,2,0.55
 03/09/2018 11:30:00,11.04,11.0,2,0.55
 03/09/2018 11:45:00,10.97,11.0,2,0.55
 03/09/2018 12:00:00,10.94,11.0,2,0.55
 03/09/2018 12:15:00,10.96,11.0,2,0.55
 03/09/2018 12:30:00,10.96,11.0,2,0.55
 03/09/2018 12:45:00,10.96,11.0,2,0.55
 03/09/2018 13:00:00,10.96,11.0,2,0.55
 03/09/2018 13:15:00,10.96,11.0,2,0.55
 03/09/2018 13:30:00,10.96,11.0,2,0.55
 03/09/2018 13:45:00,10.96,11.0,2,0.62
 03/09/2018 14:00:00,10.96,11.0,2,0.7
 03/09/2018 14:15:00,10.96,11.0,2,0.49
 03/09/2018 14:30:00,10.93,11.0,2,0.79
 03/09/2018 14:45:00,10.89,11.0,2,0.76
 03/09/2018 15:00:00,10.93,11.0,2,0.87
 03/09/2018 15:15:00,10.95,11.0,2,0.67
 03/09/2018 15:30:00,10.95,11.0,2,0.67
 03/09/2018 15:45:00,10.95,11.0,2,0.67
 03/09/2018 16:00:00,10.95,11.0,2,0.67
 03/09/2018 16:15:00,10.95,11.0,2,0.73
 03/09/2018 16:30:00,10.95,11.0,2,0.9
 03/09/2018 16:45:00,10.95,11.0,2,0.9
 03/09/2018 17:00:00,10.95,11.0,2,0.9
 03/09/2018 17:15:00,10.95,11.0,2,1.01
 03/09/2018 17:30:00,10.95,11.0,2,1.17
 03/09/2018 17:45:00,10.95,11.0,2,1.17
 03/09/2018 18:00:00,10.95,11.0,2,1.17
 03/09/2018 18:15:00,10.95,11.0,2,1.29
 03/09/2018 18:30:00,10.95,11.0,2,1.41
 03/09/2018 18:45:00,10.95,11.0,2,1.41
 03/09/2018 19:00:00,10.9,11.0,2,1.41
 03/09/2018 19:15:00,10.89,11.0,2,1.41
 03/09/2018 19:30:00,10.89,11.0,2,1.41
 03/09/2018 19:45:00,10.89,11.0,2,1.41
 03/09/2018 20:00:00,10.89,11.0,2,1.41
 03/09/2018 20:15:00,10.89,11.0,2,1.41
 03/09/2018 20:30:00,10.92,11.0,2,1.41
 03/09/2018 20:45:00,10.9,11.0,2,1.41
 03/09/2018 21:00:00,10.91,11.0,2,1.41
 03/09/2018 21:15:00,10.95,11.0,2,1.41
 03/09/2018 21:30:00,10.97,11.0,2,1.41
 03/09/2018 21:45:00,11.0,11.0,2,1.41
 03/09/2018 22:00:00,11.05,11.0,2,1.39
 03/09/2018 22:15:00,11.07,11.0,2,1.16
 03/09/2018 22:30:00,11.07,11.0,2,1.16
 03/09/2018 22:45:00,11.07,11.0,2,1.16
 03/09/2018 23:00:00,11.07,11.0,2,1.16
 03/09/2018 23:15:00,11.07,11.0,2,1.01
 03/09/2018 23:30:00,11.07,11.0,2,0.92
 03/09/2018 23:45:00,11.07,11.0,2,0.92
 04/09/2018 00:00:00,10.97,11.0,2,0.92
 04/09/2018 00:15:00,10.97,11.0,2,0.92
 04/09/2018 00:30:00,10.97,11.0,2,0.92
 04/09/2018 00:45:00,10.97,11.0,2,0.92
 04/09/2018 01:00:00,10.97,11.0,2,0.92
 04/09/2018 01:15:00,10.97,11.0,2,0.92
 04/09/2018 01:30:00,10.97,11.0,2,0.92
 04/09/2018 01:45:00,10.97,11.0,2,0.92
 04/09/2018 02:00:00,10.97,11.0,2,0.92
 04/09/2018 02:15:00,10.97,11.0,2,0.92
 04/09/2018 02:30:00,10.97,11.0,2,0.92
 04/09/2018 02:45:00,10.97,11.0,2,0.92
 04/09/2018 03:00:00,10.97,11.0,2,0.92
 04/09/2018 03:15:00,10.97,11.0,2,0.92
 04/09/2018 03:30:00,10.97,11.0,2,0.92
 04/09/2018 03:45:00,10.97,11.0,2,0.92
 04/09/2018 04:00:00,10.97,11.0,2,0.92
 04/09/2018 04:15:00,10.91,11.0,2,0.92
 04/09/2018 04:30:00,10.91,11.0,2,0.92
 04/09/2018 04:45:00,10.91,11.0,2,0.92
 04/09/2018 05:00:00,10.91,11.0,2,0.92
 04/09/2018 05:15:00,10.91,11.0,2,0.92
 04/09/2018 05:30:00,10.91,11.0,2,0.92
 04/09/2018 05:45:00,10.91,11.0,2,0.92
 04/09/2018 06:00:00,10.91,11.0,2,0.92
 04/09/2018 06:15:00,10.86,11.0,2,0.92
 04/09/2018 06:30:00,10.93,11.0,2,0.92
 04/09/2018 06:45:00,10.94,11.0,2,1.09
 04/09/2018 07:00:00,10.88,11.0,2,1.19
 04/09/2018 07:15:00,10.88,11.0,2,1.19
 04/09/2018 07:30:00,10.88,11.0,2,1.19
 04/09/2018 07:45:00,10.89,11.0,2,1.32
 04/09/2018 08:00:00,10.97,11.0,2,1.41
 04/09/2018 08:15:00,10.96,11.0,2,1.41
 04/09/2018 08:30:00,10.95,11.0,2,1.41
 04/09/2018 08:45:00,10.9,11.0,2,1.41
 04/09/2018 09:00:00,10.9,11.0,2,1.34
 04/09/2018 09:15:00,10.9,11.0,2,1.14
 04/09/2018 09:30:00,10.9,11.0,2,1.14
 04/09/2018 09:45:00,10.91,11.0,2,1.14
 04/09/2018 10:00:00,10.96,11.0,2,1.14
 04/09/2018 10:15:00,10.96,11.0,2,1.14
 04/09/2018 10:30:00,10.96,11.0,2,1.14
 04/09/2018 10:45:00,10.96,11.0,2,1.14
 04/09/2018 11:00:00,10.98,11.0,2,1.14
 04/09/2018 11:15:00,11.02,11.0,2,1.14
 04/09/2018 11:30:00,11.02,11.0,2,1.07
 04/09/2018 11:45:00,10.97,11.0,2,0.92
 04/09/2018 12:00:00,10.97,11.0,2,0.92
 04/09/2018 12:15:00,10.97,11.0,2,0.92
 04/09/2018 12:30:00,10.99,11.0,2,0.92
 04/09/2018 12:45:00,11.03,11.0,2,0.92
 04/09/2018 13:00:00,11.03,11.0,2,0.92
 04/09/2018 13:15:00,11.03,11.0,2,0.92
 04/09/2018 13:30:00,11.03,11.0,2,0.92
 04/09/2018 13:45:00,11.03,11.0,2,0.92
 04/09/2018 14:00:00,11.06,11.0,2,0.78
 04/09/2018 14:15:00,11.08,11.0,2,0.74
 04/09/2018 14:30:00,11.08,11.0,2,0.74
 04/09/2018 14:45:00,11.08,11.0,2,0.74
 04/09/2018 15:00:00,11.07,11.0,2,0.74
 04/09/2018 15:15:00,11.02,11.0,2,0.75
 04/09/2018 15:30:00,11.02,11.0,2,0.94
 04/09/2018 15:45:00,11.02,11.0,2,0.94
 04/09/2018 16:00:00,10.97,11.0,2,0.94
 04/09/2018 16:15:00,10.96,11.0,2,0.94
 04/09/2018 16:30:00,10.97,11.0,2,0.94
 04/09/2018 16:45:00,11.02,11.0,2,0.94
 04/09/2018 17:00:00,11.02,11.0,2,0.95
 04/09/2018 17:15:00,11.02,11.0,2,1.19
 04/09/2018 17:30:00,11.02,11.0,2,1.19
 04/09/2018 17:45:00,11.02,11.0,2,1.31
 04/09/2018 18:00:00,11.02,11.0,2,1.42
 04/09/2018 18:15:00,11.02,11.0,2,1.42
 04/09/2018 18:30:00,11.02,11.0,2,1.42
 04/09/2018 18:45:00,11.02,11.0,2,1.42
 04/09/2018 19:00:00,11.02,11.0,2,1.42
 04/09/2018 19:15:00,11.02,11.0,2,1.42
 04/09/2018 19:30:00,11.02,11.0,2,1.42
 04/09/2018 19:45:00,11.02,11.0,2,1.42
 04/09/2018 20:00:00,11.02,11.0,2,1.42
 04/09/2018 20:15:00,11.02,11.0,2,1.42
 04/09/2018 20:30:00,11.02,11.0,2,1.42
 04/09/2018 20:45:00,11.02,11.0,2,1.42
 04/09/2018 21:00:00,11.07,11.0,2,1.42
 04/09/2018 21:15:00,11.08,11.0,2,1.42
 04/09/2018 21:30:00,11.07,11.0,2,1.42
 04/09/2018 21:45:00,11.02,11.0,2,1.42
 04/09/2018 22:00:00,11.02,11.0,2,1.42
 04/09/2018 22:15:00,11.02,11.0,2,1.23
 04/09/2018 22:30:00,11.02,11.0,2,1.16
 04/09/2018 22:45:00,11.02,11.0,2,1.16
 04/09/2018 23:00:00,11.04,11.0,2,1.16
 04/09/2018 23:15:00,11.06,11.0,2,1.05
 04/09/2018 23:30:00,10.93,11.0,2,0.89
 04/09/2018 23:45:00,10.93,11.0,2,0.89
 05/09/2018 00:00:00,10.95,11.0,2,0.89
 05/09/2018 00:15:00,11.0,11.0,2,0.89
 05/09/2018 00:30:00,11.0,11.0,2,0.89
 05/09/2018 00:45:00,11.0,11.0,2,0.89
 05/09/2018 01:00:00,11.0,11.0,2,0.89
 05/09/2018 01:15:00,11.0,11.0,2,0.89
 05/09/2018 01:30:00,11.0,11.0,2,0.89
 05/09/2018 01:45:00,11.0,11.0,2,0.89
 05/09/2018 02:00:00,11.0,11.0,2,0.89
 05/09/2018 02:15:00,11.0,11.0,2,0.89
 05/09/2018 02:30:00,10.97,11.0,2,0.89
 05/09/2018 02:45:00,10.9,11.0,2,0.89
 05/09/2018 03:00:00,10.9,11.0,2,0.89
 05/09/2018 03:15:00,10.84,11.0,2,0.89
 05/09/2018 03:30:00,10.83,11.0,2,0.89
 05/09/2018 03:45:00,10.83,11.0,2,0.89
 05/09/2018 04:00:00,10.83,11.0,2,0.89
 05/09/2018 04:15:00,10.83,11.0,2,0.89
 05/09/2018 04:30:00,10.87,11.0,2,0.89
 05/09/2018 04:45:00,10.89,11.0,2,0.89
 05/09/2018 05:00:00,10.88,11.0,2,0.89
 05/09/2018 05:15:00,10.83,11.0,2,0.89
 05/09/2018 05:30:00,10.83,11.0,2,0.89
 05/09/2018 05:45:00,10.9,11.0,2,0.89
 05/09/2018 06:00:00,10.91,11.0,2,0.89
 05/09/2018 06:15:00,10.9,11.0,2,0.92
 05/09/2018 06:30:00,10.91,11.0,2,1.12
 05/09/2018 06:45:00,10.89,11.0,2,1.12
 05/09/2018 07:00:00,10.84,11.0,2,1.12
 05/09/2018 07:15:00,10.92,11.0,2,1.13
 05/09/2018 07:30:00,10.99,11.0,2,1.32
 05/09/2018 07:45:00,10.98,11.0,2,1.32
 05/09/2018 08:00:00,10.99,11.0,2,1.32
 05/09/2018 08:15:00,10.99,11.0,2,1.32
 05/09/2018 08:30:00,10.99,11.0,2,1.3
 05/09/2018 08:45:00,10.99,11.0,2,1.07
 05/09/2018 09:00:00,10.99,11.0,2,1.07
 05/09/2018 09:15:00,10.99,11.0,2,1.07
 05/09/2018 09:30:00,11.03,11.0,2,0.93
 05/09/2018 09:45:00,11.04,11.0,2,0.82
 05/09/2018 10:00:00,11.04,11.0,2,0.79
 05/09/2018 10:15:00,11.04,11.0,2,0.65
 05/09/2018 10:30:00,11.04,11.0,2,0.52
 05/09/2018 10:45:00,11.04,11.0,2,0.39
 05/09/2018 11:00:00,11.04,11.0,2,0.39
 05/09/2018 11:15:00,11.02,11.0,2,0.39
 05/09/2018 11:30:00,10.98,11.0,2,0.39
 05/09/2018 11:45:00,11.01,11.0,2,0.41
 05/09/2018 12:00:00,11.02,11.0,2,0.47
 05/09/2018 12:15:00,11.0,11.0,2,0.53
 05/09/2018 12:30:00,11.0,11.0,2,0.52
 05/09/2018 12:45:00,11.0,11.0,2,0.46
 05/09/2018 13:00:00,11.0,11.0,2,0.57
 05/09/2018 13:15:00,11.0,11.0,2,0.58
 05/09/2018 13:30:00,11.0,11.0,2,0.5
 05/09/2018 13:45:00,11.05,11.0,2,0.5
 05/09/2018 14:00:00,11.05,11.0,2,0.27
 05/09/2018 14:15:00,11.05,11.0,2,0.46
 05/09/2018 14:30:00,11.05,11.0,2,0.49
 05/09/2018 14:45:00,11.05,11.0,2,0.49
 05/09/2018 15:00:00,11.05,11.0,2,0.49
 05/09/2018 15:15:00,11.05,11.0,2,0.49
 05/09/2018 15:30:00,11.05,11.0,2,0.69
 05/09/2018 15:45:00,11.05,11.0,2,0.45
 05/09/2018 16:00:00,11.05,11.0,2,0.51
 05/09/2018 16:15:00,11.05,11.0,2,0.54
 05/09/2018 16:30:00,11.08,11.0,2,0.59
 05/09/2018 16:45:00,11.09,11.0,2,0.69
 05/09/2018 17:00:00,11.06,11.0,2,0.69
 05/09/2018 17:15:00,11.06,11.0,2,0.94
 05/09/2018 17:30:00,11.06,11.0,2,0.95
 05/09/2018 17:45:00,11.06,11.0,2,0.99
 05/09/2018 18:00:00,11.06,11.0,2,1.21
 05/09/2018 18:15:00,11.06,11.0,2,1.46
 05/09/2018 18:30:00,11.06,11.0,2,1.49
 05/09/2018 18:45:00,11.06,11.0,2,1.49
 05/09/2018 19:00:00,11.06,11.0,2,1.49
 05/09/2018 19:15:00,11.06,11.0,2,1.49
 05/09/2018 19:30:00,11.06,11.0,2,1.49
 05/09/2018 19:45:00,11.06,11.0,2,1.49
 05/09/2018 20:00:00,11.06,11.0,2,1.49
 05/09/2018 20:15:00,11.06,11.0,2,1.49
 05/09/2018 20:30:00,11.06,11.0,2,1.49
 05/09/2018 20:45:00,11.07,11.0,2,1.49
 05/09/2018 21:00:00,11.09,11.0,2,1.49
 05/09/2018 21:15:00,11.0,11.0,2,1.37
 05/09/2018 21:30:00,11.0,11.0,2,1.24
 05/09/2018 21:45:00,11.0,11.0,2,1.24
 05/09/2018 22:00:00,11.0,11.0,2,1.24
 05/09/2018 22:15:00,11.0,11.0,2,1.24
 05/09/2018 22:30:00,11.0,11.0,2,1.24
 05/09/2018 22:45:00,11.01,11.0,2,1.15
 05/09/2018 23:00:00,11.06,11.0,2,0.99
 05/09/2018 23:15:00,11.0,11.0,2,0.99
 05/09/2018 23:30:00,10.94,11.0,2,0.99
 05/09/2018 23:45:00,10.91,11.0,2,0.99
 06/09/2018 00:00:00,10.91,11.0,2,0.99
 06/09/2018 00:15:00,10.91,11.0,2,0.99
 06/09/2018 00:30:00,10.87,11.0,2,0.84
 06/09/2018 00:45:00,10.86,11.0,2,0.72
 06/09/2018 01:00:00,10.91,11.0,2,0.72
 06/09/2018 01:15:00,10.9,11.0,2,0.72
 06/09/2018 01:30:00,10.85,11.0,2,0.72
 06/09/2018 01:45:00,10.85,11.0,2,0.72
 06/09/2018 02:00:00,10.85,11.0,2,0.72
 06/09/2018 02:15:00,10.85,11.0,2,0.72
 06/09/2018 02:30:00,10.85,11.0,2,0.72
 06/09/2018 02:45:00,10.91,11.0,2,0.72
 06/09/2018 03:00:00,10.91,11.0,2,0.72
 06/09/2018 03:15:00,10.91,11.0,2,0.72
 06/09/2018 03:30:00,10.91,11.0,2,0.72
 06/09/2018 03:45:00,10.91,11.0,2,0.72
 06/09/2018 04:00:00,10.91,11.0,2,0.72
 06/09/2018 04:15:00,10.91,11.0,2,0.72
 06/09/2018 04:30:00,10.91,11.0,2,0.72
 06/09/2018 04:45:00,10.91,11.0,2,0.72
 06/09/2018 05:00:00,10.91,11.0,2,0.72
 06/09/2018 05:15:00,10.91,11.0,2,0.72
 06/09/2018 05:30:00,10.91,11.0,2,0.72
 06/09/2018 05:45:00,10.91,11.0,2,0.72
 06/09/2018 06:00:00,10.87,11.0,2,0.75
 06/09/2018 06:15:00,10.91,11.0,2,0.97
 06/09/2018 06:30:00,10.87,11.0,2,0.97
 06/09/2018 06:45:00,10.87,11.0,2,1.04
 06/09/2018 07:00:00,10.93,11.0,2,1.21
 06/09/2018 07:15:00,10.9,11.0,2,1.21
 06/09/2018 07:30:00,10.95,11.0,2,1.21
 06/09/2018 07:45:00,11.01,11.0,2,1.21
 06/09/2018 08:00:00,11.05,11.0,2,1.21
 06/09/2018 08:15:00,11.05,11.0,2,1.07
 06/09/2018 08:30:00,11.14,11.0,1,0.19
 06/09/2018 08:45:00,11.16,11.0,1,0.0
 06/09/2018 09:00:00,11.16,11.0,1,0.0
 06/09/2018 09:15:00,11.16,11.0,1,0.0
 06/09/2018 09:30:00,11.16,11.0,1,0.0
 06/09/2018 09:45:00,11.16,11.0,1,0.0
 06/09/2018 10:00:00,11.06,11.0,1,0.0
 06/09/2018 10:15:00,11.01,11.0,1,0.0
 06/09/2018 10:30:00,11.01,11.0,1,0.0
 06/09/2018 10:45:00,11.01,11.0,1,0.0
 06/09/2018 11:00:00,11.01,11.0,1,0.0
 06/09/2018 11:15:00,10.95,11.0,1,0.0
 06/09/2018 11:30:00,10.95,11.0,1,0.0
 06/09/2018 11:45:00,10.95,11.0,1,0.0
 06/09/2018 12:00:00,10.95,11.0,1,0.0
 06/09/2018 12:15:00,11.01,11.0,1,0.0
 06/09/2018 12:30:00,10.95,11.0,1,0.47
 06/09/2018 12:45:00,10.91,11.0,1,1.02
 06/09/2018 13:00:00,10.91,11.0,1,1.02
 06/09/2018 13:15:00,10.91,11.0,1,1.02
 06/09/2018 13:30:00,10.91,11.0,1,1.02
 06/09/2018 13:45:00,10.91,11.0,1,1.02
 06/09/2018 14:00:00,10.91,11.0,1,1.02
 06/09/2018 14:15:00,10.91,11.0,1,0.87
 06/09/2018 14:30:00,10.96,11.0,1,0.75
 06/09/2018 14:45:00,10.96,11.0,1,0.75
 06/09/2018 15:00:00,10.96,11.0,1,0.75
 06/09/2018 15:15:00,10.96,11.0,1,0.97
 06/09/2018 15:30:00,10.96,11.0,1,1.02
 06/09/2018 15:45:00,10.96,11.0,1,1.02
 06/09/2018 16:00:00,10.96,11.0,1,1.02
 06/09/2018 16:15:00,10.96,11.0,1,1.02
 06/09/2018 16:30:00,10.96,11.0,1,1.02
 06/09/2018 16:45:00,10.96,11.0,1,1.02
 06/09/2018 17:00:00,10.96,11.0,1,1.16
 06/09/2018 17:15:00,10.96,11.0,1,1.24
 06/09/2018 17:30:00,10.91,11.0,1,1.42
 06/09/2018 17:45:00,10.9,11.0,1,1.51
 06/09/2018 18:00:00,10.9,11.0,1,1.51
 06/09/2018 18:15:00,10.9,11.0,1,1.51
 06/09/2018 18:30:00,10.9,11.0,1,1.51
 06/09/2018 18:45:00,10.94,11.0,1,1.51
 06/09/2018 19:00:00,10.97,11.0,1,1.51
 06/09/2018 19:15:00,10.97,11.0,1,1.51
 06/09/2018 19:30:00,10.97,11.0,1,1.51
 06/09/2018 19:45:00,10.97,11.0,1,1.51
 06/09/2018 20:00:00,10.97,11.0,1,1.51
 06/09/2018 20:15:00,10.97,11.0,1,1.51
 06/09/2018 20:30:00,11.01,11.0,1,1.51
 06/09/2018 20:45:00,11.04,11.0,1,1.51
 06/09/2018 21:00:00,11.04,11.0,1,1.51
 06/09/2018 21:15:00,11.04,11.0,1,1.45
 06/09/2018 21:30:00,11.0,11.0,1,1.24
 06/09/2018 21:45:00,10.99,11.0,1,1.24
 06/09/2018 22:00:00,10.99,11.0,1,1.24
 06/09/2018 22:15:00,10.99,11.0,1,1.24
 06/09/2018 22:30:00,10.99,11.0,1,1.24
 06/09/2018 22:45:00,11.0,11.0,1,1.1
 06/09/2018 23:00:00,11.05,11.0,1,0.97
 06/09/2018 23:15:00,11.05,11.0,1,0.97
 06/09/2018 23:30:00,11.05,11.0,1,0.97
 06/09/2018 23:45:00,11.05,11.0,1,0.97
 07/09/2018 00:00:00,11.05,11.0,1,0.97
 07/09/2018 00:15:00,11.03,11.0,1,0.97
 07/09/2018 00:30:00,10.96,11.0,1,0.97
 07/09/2018 00:45:00,10.96,11.0,1,0.97
 07/09/2018 01:00:00,10.96,11.0,1,0.97
 07/09/2018 01:15:00,10.96,11.0,1,0.97
 07/09/2018 01:30:00,10.96,11.0,1,0.97
 07/09/2018 01:45:00,10.96,11.0,1,0.97
 07/09/2018 02:00:00,10.96,11.0,1,0.97
 07/09/2018 02:15:00,10.96,11.0,1,0.97
 07/09/2018 02:30:00,10.96,11.0,1,0.97
 07/09/2018 02:45:00,10.96,11.0,1,0.97
 07/09/2018 03:00:00,10.96,11.0,1,0.97
 07/09/2018 03:15:00,10.96,11.0,1,0.97
 07/09/2018 03:30:00,10.96,11.0,1,0.97
 07/09/2018 03:45:00,10.96,11.0,1,0.97
 07/09/2018 04:00:00,10.96,11.0,1,0.97
 07/09/2018 04:15:00,10.96,11.0,1,0.97
 07/09/2018 04:30:00,10.96,11.0,1,0.97
 07/09/2018 04:45:00,10.96,11.0,1,0.97
 07/09/2018 05:00:00,10.96,11.0,1,0.97
 07/09/2018 05:15:00,10.9,11.0,1,0.97
 07/09/2018 05:30:00,10.9,11.0,1,0.97
 07/09/2018 05:45:00,10.9,11.0,1,0.97
 07/09/2018 06:00:00,10.9,11.0,1,0.97
 07/09/2018 06:15:00,10.88,11.0,1,0.97
 07/09/2018 06:30:00,10.95,11.0,1,1.07
 07/09/2018 06:45:00,10.94,11.0,1,1.21
 07/09/2018 07:00:00,10.89,11.0,1,1.21
 07/09/2018 07:15:00,10.87,11.0,1,1.24
 07/09/2018 07:30:00,10.84,11.0,1,1.49
 07/09/2018 07:45:00,10.89,11.0,1,1.49
 07/09/2018 08:00:00,10.89,11.0,1,1.31
 07/09/2018 08:15:00,10.89,11.0,1,1.27
 07/09/2018 08:30:00,10.89,11.0,1,1.27
 07/09/2018 08:45:00,10.89,11.0,1,1.27
 07/09/2018 09:00:00,10.89,11.0,1,1.04
 07/09/2018 09:15:00,10.91,11.0,1,1.04
 07/09/2018 09:30:00,10.95,11.0,2,0.8
 07/09/2018 09:45:00,10.9,11.0,2,0.77
 07/09/2018 10:00:00,10.93,11.0,2,0.77
 07/09/2018 10:15:00,10.95,11.0,2,0.74
 07/09/2018 10:30:00,10.95,11.0,2,0.73
 07/09/2018 10:45:00,10.89,11.0,2,0.78
 07/09/2018 11:00:00,10.89,11.0,2,0.67
 07/09/2018 11:15:00,10.92,11.0,2,0.63
 07/09/2018 11:30:00,10.91,11.0,2,0.49
 07/09/2018 11:45:00,10.91,11.0,2,0.71
 07/09/2018 12:00:00,10.94,11.0,2,0.52
 07/09/2018 12:15:00,10.96,11.16,2,0.74
 07/09/2018 12:30:00,10.98,11.2,2,0.62
 07/09/2018 12:45:00,11.01,11.2,2,0.58
 07/09/2018 13:00:00,11.04,11.18,2,0.53
 07/09/2018 13:15:00,11.04,11.11,2,0.51
 07/09/2018 13:30:00,11.04,11.2,2,0.47
 07/09/2018 13:45:00,11.04,11.2,2,0.62
 07/09/2018 14:00:00,11.04,11.2,2,0.52
 07/09/2018 14:15:00,11.02,11.2,2,0.54
 07/09/2018 14:30:00,10.98,11.2,2,0.51
 07/09/2018 14:45:00,11.01,11.17,2,0.39
 07/09/2018 15:00:00,11.05,11.09,2,0.39
 07/09/2018 15:15:00,11.05,11.09,2,0.39
 07/09/2018 15:30:00,11.05,11.09,2,0.4
 07/09/2018 15:45:00,11.05,11.09,2,0.44
 07/09/2018 16:00:00,11.05,11.09,2,0.4
 07/09/2018 16:15:00,11.05,11.14,2,0.59
 07/09/2018 16:30:00,11.05,11.15,2,0.64
 07/09/2018 16:45:00,11.02,11.05,2,0.64
 07/09/2018 17:00:00,11.0,11.05,2,0.65
 07/09/2018 17:15:00,11.0,11.05,2,0.89
 07/09/2018 17:30:00,10.94,11.05,2,1.0
 07/09/2018 17:45:00,10.93,11.05,2,1.21
 07/09/2018 18:00:00,10.93,11.05,2,1.21
 07/09/2018 18:15:00,10.93,11.05,2,1.21
 07/09/2018 18:30:00,10.93,11.05,2,1.21
 07/09/2018 18:45:00,10.93,11.05,2,1.21
 07/09/2018 19:00:00,10.93,11.05,2,1.21
 07/09/2018 19:15:00,10.93,11.05,2,1.21
 07/09/2018 19:30:00,10.95,11.05,2,1.21
 07/09/2018 19:45:00,10.95,11.05,2,1.21
 07/09/2018 20:00:00,10.94,11.05,2,1.21
 07/09/2018 20:15:00,10.96,11.05,2,1.21
 07/09/2018 20:30:00,11.0,11.05,2,1.21
 07/09/2018 20:45:00,11.0,11.05,2,1.21
 07/09/2018 21:00:00,11.0,11.05,2,1.21
 07/09/2018 21:15:00,11.0,11.05,2,1.21
 07/09/2018 21:30:00,11.0,11.05,2,1.21
 07/09/2018 21:45:00,11.0,11.05,2,1.21
 07/09/2018 22:00:00,11.0,11.05,2,1.21
 07/09/2018 22:15:00,11.0,11.05,2,1.21
 07/09/2018 22:30:00,11.0,11.05,2,1.21
 07/09/2018 22:45:00,11.0,11.05,2,1.14
 07/09/2018 23:00:00,11.0,11.05,2,0.97
 07/09/2018 23:15:00,11.0,11.05,2,0.97
 07/09/2018 23:30:00,11.0,11.05,2,0.97
 07/09/2018 23:45:00,11.03,11.05,2,0.97
 08/09/2018 00:00:00,11.06,11.05,2,0.97
 08/09/2018 00:15:00,11.03,11.05,2,0.97
 08/09/2018 00:30:00,10.97,11.05,2,0.97
 08/09/2018 00:45:00,10.9,11.05,2,0.97
 08/09/2018 01:00:00,10.9,11.05,2,0.97
 08/09/2018 01:15:00,10.9,11.05,2,0.97
 08/09/2018 01:30:00,10.9,11.05,2,0.97
 08/09/2018 01:45:00,10.9,11.05,2,0.97
 08/09/2018 02:00:00,10.9,11.05,2,0.97
 08/09/2018 02:15:00,10.9,11.05,2,0.97
 08/09/2018 02:30:00,10.88,11.05,2,0.97
 08/09/2018 02:45:00,10.94,11.05,2,0.97
 08/09/2018 03:00:00,10.94,11.05,2,0.97
 08/09/2018 03:15:00,10.94,11.05,2,0.97
 08/09/2018 03:30:00,10.98,11.05,2,0.97
 08/09/2018 03:45:00,11.0,11.05,2,0.97
 08/09/2018 04:00:00,11.0,11.05,2,0.97
 08/09/2018 04:15:00,11.0,11.05,2,0.97
 08/09/2018 04:30:00,11.0,11.05,2,0.97
 08/09/2018 04:45:00,11.0,11.05,2,0.97
 08/09/2018 05:00:00,11.0,11.05,2,0.97
 08/09/2018 05:15:00,11.0,11.05,2,0.97
 08/09/2018 05:30:00,11.0,11.05,2,0.97
 08/09/2018 05:45:00,10.96,11.05,2,0.97
 08/09/2018 06:00:00,11.08,11.05,2,0.97
 08/09/2018 06:15:00,11.04,11.05,2,0.97
 08/09/2018 06:30:00,11.03,11.05,2,0.97
 08/09/2018 06:45:00,10.98,11.05,2,0.97
 08/09/2018 07:00:00,10.85,10.81,2,0.97
 08/09/2018 07:15:00,10.69,10.76,2,0.97
 08/09/2018 07:30:00,10.66,10.83,2,0.97
 08/09/2018 07:45:00,10.66,10.83,2,1.19
 08/09/2018 08:00:00,10.72,10.83,2,1.24
 08/09/2018 08:15:00,10.72,10.83,2,1.24
 08/09/2018 08:30:00,10.68,10.83,2,1.19
 08/09/2018 08:45:00,10.66,10.83,2,0.95
 08/09/2018 09:00:00,10.66,10.83,2,0.95
 08/09/2018 09:15:00,10.66,10.83,2,0.95
 08/09/2018 09:30:00,10.66,10.83,2,0.95
 08/09/2018 09:45:00,10.66,10.83,2,0.95
 08/09/2018 10:00:00,10.7,10.83,2,0.95
 08/09/2018 10:15:00,10.73,10.83,2,0.95
 08/09/2018 10:30:00,10.69,10.83,2,0.95
 08/09/2018 10:45:00,10.69,10.83,2,0.95
 08/09/2018 11:00:00,10.71,10.83,2,0.95
 08/09/2018 11:15:00,10.82,11.02,2,0.95
 08/09/2018 11:30:00,10.95,11.11,2,0.95
 08/09/2018 11:45:00,10.95,11.11,2,0.95
 08/09/2018 12:00:00,10.95,11.11,2,0.95
 08/09/2018 12:15:00,10.94,11.11,2,0.95
 08/09/2018 12:30:00,10.94,11.11,2,0.95
 08/09/2018 12:45:00,10.94,11.11,2,0.95
 08/09/2018 13:00:00,10.95,11.11,2,0.95
 08/09/2018 13:15:00,11.0,11.16,2,0.95
 08/09/2018 13:30:00,11.0,11.18,2,0.95
 08/09/2018 13:45:00,11.0,11.11,2,0.78
 08/09/2018 14:00:00,10.93,11.01,2,0.81
 08/09/2018 14:15:00,10.89,11.19,2,0.92
 08/09/2018 14:30:00,10.89,11.2,2,0.92
 08/09/2018 14:45:00,10.89,11.2,2,0.92
 08/09/2018 15:00:00,10.89,11.2,2,0.92
 08/09/2018 15:15:00,10.89,11.2,2,0.92
 08/09/2018 15:30:00,10.89,11.2,2,0.92
 08/09/2018 15:45:00,10.89,11.2,2,0.92
 08/09/2018 16:00:00,10.89,11.2,2,0.92
 08/09/2018 16:15:00,10.89,11.2,2,0.92
 08/09/2018 16:30:00,10.89,11.2,2,0.92
 08/09/2018 16:45:00,10.94,11.2,2,0.92
 08/09/2018 17:00:00,10.95,11.2,2,0.92
 08/09/2018 17:15:00,10.83,10.96,2,1.16
 08/09/2018 17:30:00,10.75,10.74,2,1.19
 08/09/2018 17:45:00,10.75,10.74,2,1.19
 08/09/2018 18:00:00,10.75,10.74,2,1.35
 08/09/2018 18:15:00,10.8,10.89,2,1.42
 08/09/2018 18:30:00,10.9,11.13,2,1.42
 08/09/2018 18:45:00,10.9,11.13,2,1.42
 08/09/2018 19:00:00,10.9,11.13,2,1.42
 08/09/2018 19:15:00,10.9,11.13,2,1.42
 08/09/2018 19:30:00,10.9,11.13,2,1.42
 08/09/2018 19:45:00,10.9,11.13,2,1.42
 08/09/2018 20:00:00,10.9,11.13,2,1.42
 08/09/2018 20:15:00,10.85,11.13,2,1.42
 08/09/2018 20:30:00,10.84,11.13,2,1.42
 08/09/2018 20:45:00,10.89,11.13,2,1.42
 08/09/2018 21:00:00,10.89,11.13,2,1.38
 08/09/2018 21:15:00,10.9,11.13,2,1.17
 08/09/2018 21:30:00,10.95,11.13,2,1.17
 08/09/2018 21:45:00,10.97,11.13,2,1.17
 08/09/2018 22:00:00,10.99,11.13,2,1.17
 08/09/2018 22:15:00,10.96,11.13,2,1.17
 08/09/2018 22:30:00,10.96,11.13,2,1.17
 08/09/2018 22:45:00,10.96,11.13,2,1.17
 08/09/2018 23:00:00,11.01,11.13,2,1.17
 08/09/2018 23:15:00,10.98,11.13,2,1.06
 08/09/2018 23:30:00,10.96,11.13,2,0.92
 08/09/2018 23:45:00,11.02,11.13,2,0.92
 09/09/2018 00:00:00,11.02,11.13,2,0.92
 09/09/2018 00:15:00,11.04,11.13,2,0.92
 09/09/2018 00:30:00,11.08,11.13,2,0.92
 09/09/2018 00:45:00,11.08,11.13,2,0.92
 09/09/2018 01:00:00,11.08,11.13,2,0.92
 09/09/2018 01:15:00,11.02,11.13,2,0.92
 09/09/2018 01:30:00,11.02,11.13,2,0.92
 09/09/2018 01:45:00,11.02,11.13,2,0.92
 09/09/2018 02:00:00,11.05,11.13,2,0.92
 09/09/2018 02:15:00,11.08,11.13,2,0.92
 09/09/2018 02:30:00,11.08,11.13,2,0.92
 09/09/2018 02:45:00,11.08,11.13,2,0.92
 09/09/2018 03:00:00,11.05,11.13,2,0.92
 09/09/2018 03:15:00,10.93,11.13,2,0.92
 09/09/2018 03:30:00,10.93,11.13,2,0.92
 09/09/2018 03:45:00,10.93,11.13,2,0.92
 09/09/2018 04:00:00,10.93,11.13,2,0.92
 09/09/2018 04:15:00,10.93,11.13,2,0.92
 09/09/2018 04:30:00,10.93,11.13,2,0.92
 09/09/2018 04:45:00,10.93,11.13,2,0.92
 09/09/2018 05:00:00,10.93,11.13,2,0.92